Time,TemperatureF,DewpointF,PressureIn,WindDirection,WindDirectionDegrees,WindSpeedMPH,WindSpeedGustMPH,Humidity,HourlyPrecipIn,Conditions,Clouds,dailyrainin,SoftwareType,DateUTC
2013-07-19 00:02:00,74.3,69.8,29.68,SE,134,1.0,1.0,86,0.00,,,0.00,Wunderground v.1.15,2013-07-19 05:02:00,
2013-07-19 00:08:00,74.1,70.0,29.68,SSW,201,0.0,3.0,87,0.00,,,0.00,Wunderground v.1.15,2013-07-19 05:08:00,
2013-07-19 00:13:00,73.9,70.1,29.68,SSW,206,1.0,1.0,88,0.00,,,0.00,Wunderground v.1.15,2013-07-19 05:13:00,
2013-07-19 00:18:00,73.6,69.8,29.67,SSW,198,1.0,2.0,88,0.00,,,0.00,Wunderground v.1.15,2013-07-19 05:18:00,
2013-07-19 00:24:00,73.4,70.0,29.67,SSW,208,0.0,2.0,89,0.00,,,0.00,Wunderground v.1.15,2013-07-19 05:24:00,
2013-07-19 00:30:00,73.3,69.9,29.68,SE,140,0.0,1.0,89,0.00,,,0.00,Wunderground v.1.15,2013-07-19 05:30:00,
2013-07-19 00:35:00,73.3,69.9,29.68,SSE,167,0.0,1.0,89,0.00,,,0.00,Wunderground v.1.15,2013-07-19 05:35:00,
2013-07-19 00:40:00,73.1,69.7,29.68,SSW,197,0.0,0.0,89,0.00,,,0.00,Wunderground v.1.15,2013-07-19 05:40:00,
2013-07-19 00:46:00,72.9,69.8,29.67,SSW,211,2.0,2.0,90,0.00,,,0.00,Wunderground v.1.15,2013-07-19 05:46:00,
2013-07-19 00:51:00,72.8,69.7,29.67,WSW,257,1.0,1.0,90,0.00,,,0.00,Wunderground v.1.15,2013-07-19 05:51:00,
2013-07-19 00:56:00,72.6,69.5,29.67,SW,236,0.0,2.0,90,0.00,,,0.00,Wunderground v.1.15,2013-07-19 05:56:00,
2013-07-19 01:02:00,72.5,69.7,29.67,West,262,0.0,1.0,91,0.00,,,0.00,Wunderground v.1.15,2013-07-19 06:02:00,
2013-07-19 01:07:00,72.5,69.7,29.67,SW,219,0.0,1.0,91,0.00,,,0.00,Wunderground v.1.15,2013-07-19 06:07:00,
2013-07-19 01:12:00,72.5,69.4,29.67,SSW,210,0.0,1.0,90,0.00,,,0.00,Wunderground v.1.15,2013-07-19 06:12:00,
2013-07-19 01:17:00,72.5,69.1,29.67,SW,215,0.0,2.0,89,0.00,,,0.00,Wunderground v.1.15,2013-07-19 06:17:00,
2013-07-19 01:23:00,72.4,69.0,29.66,SW,217,3.0,3.0,89,0.00,,,0.00,Wunderground v.1.15,2013-07-19 06:23:00,
2013-07-19 01:28:00,72.4,69.0,29.66,SW,224,0.0,3.0,89,0.00,,,0.00,Wunderground v.1.15,2013-07-19 06:28:00,
2013-07-19 01:33:00,72.3,68.9,29.66,SW,230,0.0,1.0,89,0.00,,,0.00,Wunderground v.1.15,2013-07-19 06:33:00,
2013-07-19 01:38:00,72.2,68.8,29.66,SW,224,0.0,1.0,89,0.00,,,0.00,Wunderground v.1.15,2013-07-19 06:38:00,
2013-07-19 01:44:00,72.0,68.9,29.66,SW,226,0.0,0.0,90,0.00,,,0.00,Wunderground v.1.15,2013-07-19 06:44:00,
2013-07-19 01:49:00,71.8,68.7,29.66,SW,228,0.0,0.0,90,0.00,,,0.00,Wunderground v.1.15,2013-07-19 06:49:00,
2013-07-19 01:54:00,71.8,68.7,29.66,SW,228,0.0,0.0,90,0.00,,,0.00,Wunderground v.1.15,2013-07-19 06:54:00,
2013-07-19 02:00:00,71.8,68.7,29.66,SW,228,0.0,0.0,90,0.00,,,0.00,Wunderground v.1.15,2013-07-19 07:00:00,
2013-07-19 02:05:00,71.8,68.7,29.66,SW,228,0.0,0.0,90,0.00,,,0.00,Wunderground v.1.15,2013-07-19 07:05:00,
2013-07-19 02:10:00,71.7,68.6,29.66,SW,228,0.0,0.0,90,0.00,,,0.00,Wunderground v.1.15,2013-07-19 07:10:00,
2013-07-19 02:15:00,71.7,68.3,29.66,SSW,195,0.0,0.0,89,0.00,,,0.00,Wunderground v.1.15,2013-07-19 07:15:00,
2013-07-19 02:20:00,71.6,68.2,29.66,SSW,205,0.0,0.0,89,0.00,,,0.00,Wunderground v.1.15,2013-07-19 07:20:00,
2013-07-19 02:25:00,71.5,68.4,29.66,SSW,205,0.0,0.0,90,0.00,,,0.00,Wunderground v.1.15,2013-07-19 07:25:00,
2013-07-19 02:30:00,71.4,68.3,29.66,SSW,205,0.0,0.0,90,0.00,,,0.00,Wunderground v.1.15,2013-07-19 07:30:00,
2013-07-19 02:35:00,71.4,68.3,29.66,SSW,203,0.0,0.0,90,0.00,,,0.00,Wunderground v.1.15,2013-07-19 07:35:00,
2013-07-19 02:40:00,71.3,68.5,29.66,SW,215,0.0,0.0,91,0.00,,,0.00,Wunderground v.1.15,2013-07-19 07:40:00,
2013-07-19 02:45:00,71.2,68.4,29.66,SW,214,0.0,0.0,91,0.00,,,0.00,Wunderground v.1.15,2013-07-19 07:45:00,
2013-07-19 02:50:00,71.1,68.3,29.67,SE,127,0.0,0.0,91,0.00,,,0.00,Wunderground v.1.15,2013-07-19 07:50:00,
2013-07-19 02:55:00,71.1,68.7,29.67,SE,134,0.0,0.0,92,0.00,,,0.00,Wunderground v.1.15,2013-07-19 07:55:00,
2013-07-19 03:00:00,71.0,68.6,29.67,SE,135,0.0,0.0,92,0.00,,,0.00,Wunderground v.1.15,2013-07-19 08:00:00,
2013-07-19 03:05:00,70.9,68.5,29.66,SE,139,0.0,0.0,92,0.00,,,0.00,Wunderground v.1.15,2013-07-19 08:05:00,
2013-07-19 03:10:00,70.8,68.4,29.66,SE,127,0.0,0.0,92,0.00,,,0.00,Wunderground v.1.15,2013-07-19 08:10:00,
2013-07-19 03:15:00,70.7,68.3,29.66,SE,136,0.0,0.0,92,0.00,,,0.00,Wunderground v.1.15,2013-07-19 08:15:00,
2013-07-19 03:21:00,70.7,68.3,29.66,SE,136,0.0,0.0,92,0.00,,,0.00,Wunderground v.1.15,2013-07-19 08:21:00,
2013-07-19 03:26:00,70.6,68.5,29.66,SE,134,0.0,0.0,93,0.00,,,0.00,Wunderground v.1.15,2013-07-19 08:26:00,
2013-07-19 03:31:00,70.5,68.4,29.66,South,173,0.0,0.0,93,0.00,,,0.00,Wunderground v.1.15,2013-07-19 08:31:00,
2013-07-19 03:36:00,70.4,68.3,29.66,SE,141,0.0,0.0,93,0.00,,,0.00,Wunderground v.1.15,2013-07-19 08:36:00,
2013-07-19 03:41:00,70.3,68.2,29.66,SE,137,0.0,0.0,93,0.00,,,0.00,Wunderground v.1.15,2013-07-19 08:41:00,
2013-07-19 03:46:00,70.2,68.1,29.66,SE,146,0.0,0.0,93,0.00,,,0.00,Wunderground v.1.15,2013-07-19 08:46:00,
2013-07-19 03:51:00,70.2,68.1,29.65,SE,138,0.0,0.0,93,0.00,,,0.00,Wunderground v.1.15,2013-07-19 08:51:00,
2013-07-19 03:56:00,70.1,68.0,29.65,SW,217,0.0,0.0,93,0.00,,,0.00,Wunderground v.1.15,2013-07-19 08:56:00,
2013-07-19 04:01:00,70.0,68.2,29.65,SW,215,0.0,0.0,94,0.00,,,0.00,Wunderground v.1.15,2013-07-19 09:01:00,
2013-07-19 04:06:00,69.9,68.1,29.66,South,177,0.0,0.0,94,0.00,,,0.00,Wunderground v.1.15,2013-07-19 09:06:00,
2013-07-19 04:11:00,69.8,68.0,29.66,SW,221,0.0,0.0,94,0.00,,,0.00,Wunderground v.1.15,2013-07-19 09:11:00,
2013-07-19 04:16:00,69.8,68.0,29.66,SSW,200,0.0,0.0,94,0.00,,,0.00,Wunderground v.1.15,2013-07-19 09:16:00,
2013-07-19 04:21:00,69.6,68.1,29.65,SSW,197,0.0,0.0,95,0.00,,,0.00,Wunderground v.1.15,2013-07-19 09:21:00,
2013-07-19 04:26:00,69.6,68.1,29.65,SSE,164,0.0,0.0,95,0.00,,,0.00,Wunderground v.1.15,2013-07-19 09:26:00,
2013-07-19 04:31:00,69.5,68.0,29.65,SE,141,0.0,0.0,95,0.00,,,0.00,Wunderground v.1.15,2013-07-19 09:31:00,
2013-07-19 04:36:00,69.5,68.0,29.65,SSE,148,0.0,0.0,95,0.00,,,0.00,Wunderground v.1.15,2013-07-19 09:36:00,
2013-07-19 04:41:00,69.4,67.9,29.65,SSE,150,0.0,0.0,95,0.00,,,0.00,Wunderground v.1.15,2013-07-19 09:41:00,
2013-07-19 04:46:00,69.4,67.9,29.66,SSE,159,0.0,0.0,95,0.00,,,0.00,Wunderground v.1.15,2013-07-19 09:46:00,
2013-07-19 04:51:00,69.3,67.8,29.65,SSE,160,0.0,0.0,95,0.00,,,0.00,Wunderground v.1.15,2013-07-19 09:51:00,
2013-07-19 04:57:00,69.3,67.8,29.66,SE,142,0.0,0.0,95,0.00,,,0.00,Wunderground v.1.15,2013-07-19 09:57:00,
2013-07-19 05:02:00,69.2,67.7,29.66,SSE,150,0.0,0.0,95,0.00,,,0.00,Wunderground v.1.15,2013-07-19 10:02:00,
2013-07-19 05:07:00,69.2,67.7,29.66,SE,132,0.0,0.0,95,0.00,,,0.00,Wunderground v.1.15,2013-07-19 10:07:00,
2013-07-19 05:12:00,69.1,67.6,29.66,SE,146,2.0,2.0,95,0.00,,,0.00,Wunderground v.1.15,2013-07-19 10:12:00,
2013-07-19 05:17:00,69.1,67.6,29.65,SE,132,1.0,2.0,95,0.00,,,0.00,Wunderground v.1.15,2013-07-19 10:17:00,
2013-07-19 05:22:00,69.0,67.5,29.66,SE,135,2.0,3.0,95,0.00,,,0.00,Wunderground v.1.15,2013-07-19 10:22:00,
2013-07-19 05:27:00,68.9,67.4,29.66,South,170,0.0,3.0,95,0.00,,,0.00,Wunderground v.1.15,2013-07-19 10:27:00,
2013-07-19 05:32:00,68.9,67.4,29.66,SSE,148,1.0,2.0,95,0.00,,,0.00,Wunderground v.1.15,2013-07-19 10:32:00,
2013-07-19 05:37:00,68.9,67.4,29.66,SSW,199,1.0,2.0,95,0.00,,,0.00,Wunderground v.1.15,2013-07-19 10:37:00,
2013-07-19 05:42:00,68.9,67.4,29.66,South,177,1.0,2.0,95,0.00,,,0.00,Wunderground v.1.15,2013-07-19 10:42:00,
2013-07-19 05:47:00,68.7,67.2,29.66,SW,217,1.0,2.0,95,0.00,,,0.00,Wunderground v.1.15,2013-07-19 10:47:00,
2013-07-19 05:52:00,68.6,67.1,29.66,SSE,149,0.0,1.0,95,0.00,,,0.00,Wunderground v.1.15,2013-07-19 10:52:00,
2013-07-19 05:57:00,68.5,67.0,29.66,SE,132,0.0,2.0,95,0.00,,,0.00,Wunderground v.1.15,2013-07-19 10:57:00,
2013-07-19 06:02:00,68.5,67.0,29.66,SE,137,1.0,2.0,95,0.00,,,0.00,Wunderground v.1.15,2013-07-19 11:02:00,
2013-07-19 06:07:00,68.6,67.1,29.66,SSE,167,1.0,2.0,95,0.00,,,0.00,Wunderground v.1.15,2013-07-19 11:07:00,
2013-07-19 06:12:00,68.6,67.1,29.66,SE,133,1.0,2.0,95,0.00,,,0.00,Wunderground v.1.15,2013-07-19 11:12:00,
2013-07-19 06:17:00,68.6,67.1,29.67,SE,129,1.0,3.0,95,0.00,,,0.00,Wunderground v.1.15,2013-07-19 11:17:00,
2013-07-19 06:22:00,68.7,67.2,29.67,SSE,158,1.0,2.0,95,0.00,,,0.00,Wunderground v.1.15,2013-07-19 11:22:00,
2013-07-19 06:27:00,68.7,67.2,29.67,SE,134,0.0,4.0,95,0.00,,,0.00,Wunderground v.1.15,2013-07-19 11:27:00,
2013-07-19 06:32:00,68.7,67.2,29.67,SSE,155,2.0,4.0,95,0.00,,,0.00,Wunderground v.1.15,2013-07-19 11:32:00,
2013-07-19 06:37:00,68.9,67.4,29.67,SW,219,3.0,4.0,95,0.00,,,0.00,Wunderground v.1.15,2013-07-19 11:37:00,
2013-07-19 06:42:00,69.3,67.8,29.67,SE,131,2.0,3.0,95,0.00,,,0.00,Wunderground v.1.15,2013-07-19 11:42:00,
2013-07-19 06:47:00,69.6,67.8,29.67,SSE,155,0.0,3.0,94,0.00,,,0.00,Wunderground v.1.15,2013-07-19 11:47:00,
2013-07-19 06:52:00,70.0,68.2,29.67,SW,217,1.0,3.0,94,0.00,,,0.00,Wunderground v.1.15,2013-07-19 11:52:00,
2013-07-19 06:58:00,70.2,68.1,29.67,SE,146,1.0,4.0,93,0.00,,,0.00,Wunderground v.1.15,2013-07-19 11:58:00,
2013-07-19 07:03:00,70.6,68.2,29.67,SE,134,0.0,3.0,92,0.00,,,0.00,Wunderground v.1.15,2013-07-19 12:03:00,
2013-07-19 07:08:00,71.1,68.7,29.67,SSE,164,1.0,3.0,92,0.00,,,0.00,Wunderground v.1.15,2013-07-19 12:08:00,
2013-07-19 07:13:00,71.4,68.6,29.68,SSE,153,2.0,2.0,91,0.00,,,0.00,Wunderground v.1.15,2013-07-19 12:13:00,
2013-07-19 07:18:00,71.6,68.8,29.68,SE,131,2.0,2.0,91,0.00,,,0.00,Wunderground v.1.15,2013-07-19 12:18:00,
2013-07-19 07:23:00,71.8,68.7,29.68,SSE,158,1.0,2.0,90,0.00,,,0.00,Wunderground v.1.15,2013-07-19 12:23:00,
2013-07-19 07:28:00,72.2,69.1,29.68,SSW,200,2.0,2.0,90,0.00,,,0.00,Wunderground v.1.15,2013-07-19 12:28:00,
2013-07-19 07:33:00,72.4,68.6,29.68,SW,226,3.0,4.0,88,0.00,,,0.00,Wunderground v.1.15,2013-07-19 12:33:00,
2013-07-19 07:38:00,72.5,69.1,29.68,SW,221,3.0,4.0,89,0.00,,,0.00,Wunderground v.1.15,2013-07-19 12:38:00,
2013-07-19 07:43:00,73.0,69.2,29.68,SW,216,0.0,3.0,88,0.00,,,0.00,Wunderground v.1.15,2013-07-19 12:43:00,
2013-07-19 07:48:00,73.7,69.6,29.68,SW,236,2.0,3.0,87,0.00,,,0.00,Wunderground v.1.15,2013-07-19 12:48:00,
2013-07-19 07:53:00,73.8,69.7,29.68,SSW,210,2.0,4.0,87,0.00,,,0.00,Wunderground v.1.15,2013-07-19 12:53:00,
2013-07-19 07:58:00,74.1,69.3,29.68,SSW,210,4.0,4.0,85,0.00,,,0.00,Wunderground v.1.15,2013-07-19 12:58:00,
2013-07-19 08:03:00,74.2,69.4,29.68,ESE,119,1.0,4.0,85,0.00,,,0.00,Wunderground v.1.15,2013-07-19 13:03:00,
2013-07-19 08:08:00,74.8,68.9,29.68,SSW,211,2.0,4.0,82,0.00,,,0.00,Wunderground v.1.15,2013-07-19 13:08:00,
2013-07-19 08:13:00,75.0,69.5,29.69,SSW,203,1.0,4.0,83,0.00,,,0.00,Wunderground v.1.15,2013-07-19 13:13:00,
2013-07-19 08:18:00,75.5,69.6,29.69,SSW,195,0.0,4.0,82,0.00,,,0.00,Wunderground v.1.15,2013-07-19 13:18:00,
2013-07-19 08:23:00,75.8,69.6,29.69,SSW,212,5.0,5.0,81,0.00,,,0.00,Wunderground v.1.15,2013-07-19 13:23:00,
2013-07-19 08:26:00,76.0,69.4,29.69,WSW,255,1.0,6.0,80,0.00,,,0.00,Wunderground v.1.15,2013-07-19 13:26:00,
2013-07-19 08:31:00,76.0,69.4,29.69,SW,218,3.0,5.0,80,0.00,,,0.00,Wunderground v.1.15,2013-07-19 13:31:00,
2013-07-19 08:36:00,76.2,69.6,29.69,SE,133,1.0,5.0,80,0.00,,,0.00,Wunderground v.1.15,2013-07-19 13:36:00,
2013-07-19 08:41:00,76.4,69.8,29.69,SW,214,2.0,3.0,80,0.00,,,0.00,Wunderground v.1.15,2013-07-19 13:41:00,
2013-07-19 08:46:00,76.7,69.3,29.69,SE,138,2.0,5.0,78,0.00,,,0.00,Wunderground v.1.15,2013-07-19 13:46:00,
2013-07-19 08:51:00,77.0,70.0,29.69,SSE,158,2.0,3.0,79,0.00,,,0.00,Wunderground v.1.15,2013-07-19 13:51:00,
2013-07-19 08:56:00,77.5,70.1,29.69,SW,229,4.0,6.0,78,0.00,,,0.00,Wunderground v.1.15,2013-07-19 13:56:00,
2013-07-19 09:02:00,78.0,69.8,29.69,West,277,0.0,2.0,76,0.00,,,0.00,Wunderground v.1.15,2013-07-19 14:02:00,
2013-07-19 09:07:00,77.9,68.5,29.69,WSW,252,2.0,6.0,73,0.00,,,0.00,Wunderground v.1.15,2013-07-19 14:07:00,
2013-07-19 09:12:00,77.7,68.7,29.69,WSW,248,3.0,6.0,74,0.00,,,0.00,Wunderground v.1.15,2013-07-19 14:12:00,
2013-07-19 09:17:00,77.7,68.7,29.69,South,191,2.0,7.0,74,0.00,,,0.00,Wunderground v.1.15,2013-07-19 14:17:00,
2013-07-19 09:22:00,77.9,69.3,29.69,SSE,167,0.0,3.0,75,0.00,,,0.00,Wunderground v.1.15,2013-07-19 14:22:00,
2013-07-19 09:27:00,78.4,69.0,29.69,SW,218,2.0,7.0,73,0.00,,,0.00,Wunderground v.1.15,2013-07-19 14:27:00,
2013-07-19 09:32:00,78.8,69.4,29.69,South,176,2.0,5.0,73,0.00,,,0.00,Wunderground v.1.15,2013-07-19 14:32:00,
2013-07-19 09:37:00,78.8,68.6,29.69,WSW,238,2.0,7.0,71,0.00,,,0.00,Wunderground v.1.15,2013-07-19 14:37:00,
2013-07-19 09:42:00,78.6,68.8,29.69,SW,218,4.0,5.0,72,0.00,,,0.00,Wunderground v.1.15,2013-07-19 14:42:00,
2013-07-19 09:47:00,78.8,68.6,29.69,WSW,242,2.0,8.0,71,0.00,,,0.00,Wunderground v.1.15,2013-07-19 14:47:00,
2013-07-19 09:52:00,79.2,68.6,29.69,SW,229,3.0,6.0,70,0.00,,,0.00,Wunderground v.1.15,2013-07-19 14:52:00,
2013-07-19 09:57:00,79.3,68.7,29.69,West,265,1.0,6.0,70,0.00,,,0.00,Wunderground v.1.15,2013-07-19 14:57:00,
2013-07-19 10:02:00,79.2,68.6,29.69,West,274,1.0,6.0,70,0.00,,,0.00,Wunderground v.1.15,2013-07-19 15:02:00,
2013-07-19 10:07:00,79.3,68.7,29.69,SSW,194,3.0,8.0,70,0.00,,,0.00,Wunderground v.1.15,2013-07-19 15:07:00,
2013-07-19 10:12:00,79.7,68.6,29.69,SW,227,2.0,8.0,69,0.00,,,0.00,Wunderground v.1.15,2013-07-19 15:12:00,
2013-07-19 10:17:00,80.1,69.4,29.69,WSW,245,4.0,8.0,70,0.00,,,0.00,Wunderground v.1.15,2013-07-19 15:17:00,
2013-07-19 10:22:00,80.5,69.4,29.69,West,259,3.0,4.0,69,0.00,,,0.00,Wunderground v.1.15,2013-07-19 15:22:00,
2013-07-19 10:27:00,80.7,69.2,29.69,WSW,242,3.0,8.0,68,0.00,,,0.00,Wunderground v.1.15,2013-07-19 15:27:00,
2013-07-19 10:32:00,80.8,69.7,29.69,South,181,3.0,7.0,69,0.00,,,0.00,Wunderground v.1.15,2013-07-19 15:32:00,
2013-07-19 10:37:00,81.1,69.1,29.69,SE,136,2.0,7.0,67,0.00,,,0.00,Wunderground v.1.15,2013-07-19 15:37:00,
2013-07-19 10:42:00,81.1,69.1,29.68,SW,236,3.0,6.0,67,0.00,,,0.00,Wunderground v.1.15,2013-07-19 15:42:00,
2013-07-19 10:47:00,81.3,70.2,29.68,SE,146,4.0,6.0,69,0.00,,,0.00,Wunderground v.1.15,2013-07-19 15:47:00,
2013-07-19 10:52:00,81.6,69.6,29.68,WSW,243,3.0,6.0,67,0.00,,,0.00,Wunderground v.1.15,2013-07-19 15:52:00,
2013-07-19 10:57:00,81.3,69.3,29.68,WSW,250,0.0,7.0,67,0.00,,,0.00,Wunderground v.1.15,2013-07-19 15:57:00,
2013-07-19 11:02:00,82.1,69.6,29.68,SW,224,2.0,8.0,66,0.00,,,0.00,Wunderground v.1.15,2013-07-19 16:02:00,
2013-07-19 11:07:00,82.2,69.7,29.68,South,186,2.0,8.0,66,0.00,,,0.00,Wunderground v.1.15,2013-07-19 16:07:00,
2013-07-19 11:12:00,82.5,69.5,29.68,SW,217,4.0,7.0,65,0.00,,,0.00,Wunderground v.1.15,2013-07-19 16:12:00,
2013-07-19 11:17:00,82.3,69.8,29.67,SW,224,4.0,9.0,66,0.00,,,0.00,Wunderground v.1.15,2013-07-19 16:17:00,
2013-07-19 11:22:00,82.4,69.4,29.67,SSE,168,1.0,9.0,65,0.00,,,0.00,Wunderground v.1.15,2013-07-19 16:22:00,
2013-07-19 11:27:00,82.6,70.1,29.67,South,169,5.0,9.0,66,0.00,,,0.00,Wunderground v.1.15,2013-07-19 16:27:00,
2013-07-19 11:32:00,82.9,69.9,29.67,SW,222,6.0,9.0,65,0.00,,,0.00,Wunderground v.1.15,2013-07-19 16:32:00,
2013-07-19 11:37:00,82.7,70.2,29.67,West,262,2.0,9.0,66,0.00,,,0.00,Wunderground v.1.15,2013-07-19 16:37:00,
2013-07-19 11:42:00,82.9,69.9,29.67,SSW,203,3.0,10.0,65,0.00,,,0.00,Wunderground v.1.15,2013-07-19 16:42:00,
2013-07-19 11:47:00,82.9,70.4,29.67,WSW,255,4.0,10.0,66,0.00,,,0.00,Wunderground v.1.15,2013-07-19 16:47:00,
2013-07-19 11:52:00,83.1,70.1,29.67,SW,218,4.0,8.0,65,0.00,,,0.00,Wunderground v.1.15,2013-07-19 16:52:00,
2013-07-19 11:57:00,82.9,69.5,29.67,South,184,4.0,9.0,64,0.00,,,0.00,Wunderground v.1.15,2013-07-19 16:57:00,
2013-07-19 12:02:00,83.3,70.3,29.67,SSW,204,0.0,6.0,65,0.00,,,0.00,Wunderground v.1.15,2013-07-19 17:02:00,
2013-07-19 12:07:00,84.0,70.0,29.67,SW,214,4.0,8.0,63,0.00,,,0.00,Wunderground v.1.15,2013-07-19 17:07:00,
2013-07-19 12:12:00,83.5,70.0,29.67,SE,131,4.0,6.0,64,0.00,,,0.00,Wunderground v.1.15,2013-07-19 17:12:00,
2013-07-19 12:17:00,83.5,70.5,29.66,SSE,152,0.0,6.0,65,0.00,,,0.00,Wunderground v.1.15,2013-07-19 17:17:00,
2013-07-19 12:22:00,84.0,70.5,29.66,SW,219,5.0,6.0,64,0.00,,,0.00,Wunderground v.1.15,2013-07-19 17:22:00,
2013-07-19 12:27:00,84.1,70.1,29.66,SW,214,5.0,8.0,63,0.00,,,0.00,Wunderground v.1.15,2013-07-19 17:27:00,
2013-07-19 12:32:00,83.8,70.3,29.66,South,184,8.0,8.0,64,0.00,,,0.00,Wunderground v.1.15,2013-07-19 17:32:00,
2013-07-19 12:37:00,83.7,70.7,29.66,WSW,248,4.0,8.0,65,0.00,,,0.00,Wunderground v.1.15,2013-07-19 17:37:00,
2013-07-19 12:42:00,84.1,70.6,29.65,SSW,194,2.0,7.0,64,0.00,,,0.00,Wunderground v.1.15,2013-07-19 17:42:00,
2013-07-19 12:47:00,84.3,70.3,29.65,SSW,212,3.0,11.0,63,0.00,,,0.00,Wunderground v.1.15,2013-07-19 17:47:00,
2013-07-19 12:52:00,84.4,70.4,29.65,WSW,239,3.0,8.0,63,0.00,,,0.00,Wunderground v.1.15,2013-07-19 17:52:00,
2013-07-19 12:57:00,84.3,70.3,29.65,SW,236,6.0,8.0,63,0.00,,,0.00,Wunderground v.1.15,2013-07-19 17:57:00,
2013-07-19 13:02:00,84.0,70.5,29.65,West,270,2.0,8.0,64,0.00,,,0.00,Wunderground v.1.15,2013-07-19 18:02:00,
2013-07-19 13:07:00,84.0,70.5,29.65,SW,219,8.0,8.0,64,0.00,,,0.00,Wunderground v.1.15,2013-07-19 18:07:00,
2013-07-19 13:12:00,83.7,71.1,29.64,SW,229,2.0,8.0,66,0.00,,,0.00,Wunderground v.1.15,2013-07-19 18:12:00,
2013-07-19 13:18:00,84.2,70.7,29.64,SSW,200,2.0,8.0,64,0.00,,,0.00,Wunderground v.1.15,2013-07-19 18:18:00,
2013-07-19 13:23:00,84.7,70.2,29.64,ESE,115,9.0,10.0,62,0.00,,,0.00,Wunderground v.1.15,2013-07-19 18:23:00,
2013-07-19 13:28:00,84.4,70.0,29.64,SSW,193,3.0,10.0,62,0.00,,,0.00,Wunderground v.1.15,2013-07-19 18:28:00,
2013-07-19 13:33:00,84.1,70.6,29.64,SSW,195,2.0,7.0,64,0.00,,,0.00,Wunderground v.1.15,2013-07-19 18:33:00,
2013-07-19 13:38:00,84.0,70.0,29.64,WNW,292,5.0,10.0,63,0.00,,,0.00,Wunderground v.1.15,2013-07-19 18:38:00,
2013-07-19 13:43:00,84.5,70.5,29.64,WSW,239,3.0,7.0,63,0.00,,,0.00,Wunderground v.1.15,2013-07-19 18:43:00,
2013-07-19 13:48:00,85.0,70.5,29.63,SSE,150,4.0,10.0,62,0.00,,,0.00,Wunderground v.1.15,2013-07-19 18:48:00,
2013-07-19 13:53:00,85.0,70.0,29.63,SSE,151,7.0,10.0,61,0.00,,,0.00,Wunderground v.1.15,2013-07-19 18:53:00,
2013-07-19 13:58:00,85.1,70.6,29.63,SSE,152,3.0,10.0,62,0.00,,,0.00,Wunderground v.1.15,2013-07-19 18:58:00,
2013-07-19 14:03:00,85.0,69.6,29.63,SSW,205,7.0,9.0,60,0.00,,,0.00,Wunderground v.1.15,2013-07-19 19:03:00,
2013-07-19 14:08:00,85.2,70.7,29.63,WSW,250,2.0,9.0,62,0.00,,,0.00,Wunderground v.1.15,2013-07-19 19:08:00,
2013-07-19 14:13:00,85.8,70.8,29.62,SW,218,4.0,9.0,61,0.00,,,0.00,Wunderground v.1.15,2013-07-19 19:13:00,
2013-07-19 14:18:00,86.1,69.6,29.62,ESE,118,2.0,9.0,58,0.00,,,0.00,Wunderground v.1.15,2013-07-19 19:18:00,
2013-07-19 14:23:00,85.8,70.3,29.62,SSW,198,6.0,8.0,60,0.00,,,0.00,Wunderground v.1.15,2013-07-19 19:23:00,
2013-07-19 14:28:00,85.9,70.9,29.62,WSW,242,6.0,8.0,61,0.00,,,0.00,Wunderground v.1.15,2013-07-19 19:28:00,
2013-07-19 14:33:00,85.8,70.3,29.62,SSE,166,2.0,6.0,60,0.00,,,0.00,Wunderground v.1.15,2013-07-19 19:33:00,
2013-07-19 14:38:00,86.1,70.6,29.61,SE,132,5.0,11.0,60,0.00,,,0.00,Wunderground v.1.15,2013-07-19 19:38:00,
2013-07-19 14:43:00,86.4,70.4,29.61,South,187,7.0,10.0,59,0.00,,,0.00,Wunderground v.1.15,2013-07-19 19:43:00,
2013-07-19 14:48:00,86.0,70.5,29.61,SW,228,4.0,10.0,60,0.00,,,0.00,Wunderground v.1.15,2013-07-19 19:48:00,
2013-07-19 14:53:00,85.9,70.4,29.60,South,177,3.0,6.0,60,0.00,,,0.00,Wunderground v.1.15,2013-07-19 19:53:00,
2013-07-19 14:58:00,86.2,69.7,29.60,SE,138,4.0,9.0,58,0.00,,,0.00,Wunderground v.1.15,2013-07-19 19:58:00,
2013-07-19 15:03:00,85.8,69.3,29.60,South,188,6.0,12.0,58,0.00,,,0.00,Wunderground v.1.15,2013-07-19 20:03:00,
2013-07-19 15:08:00,85.5,69.5,29.59,SSW,210,6.0,12.0,59,0.00,,,0.00,Wunderground v.1.15,2013-07-19 20:08:00,
2013-07-19 15:13:00,85.3,68.8,29.59,SSE,148,10.0,14.0,58,0.00,,,0.00,Wunderground v.1.15,2013-07-19 20:13:00,
2013-07-19 15:18:00,85.2,69.3,29.59,SSW,197,3.0,14.0,59,0.00,,,0.00,Wunderground v.1.15,2013-07-19 20:18:00,
2013-07-19 15:23:00,85.7,70.2,29.59,SW,218,1.0,6.0,60,0.00,,,0.00,Wunderground v.1.15,2013-07-19 20:23:00,
2013-07-19 15:28:00,85.9,69.9,29.58,South,170,7.0,10.0,59,0.00,,,0.00,Wunderground v.1.15,2013-07-19 20:28:00,
2013-07-19 15:33:00,85.8,69.8,29.58,SW,235,2.0,8.0,59,0.00,,,0.00,Wunderground v.1.15,2013-07-19 20:33:00,
2013-07-19 15:38:00,85.5,69.5,29.58,SSW,200,3.0,8.0,59,0.00,,,0.00,Wunderground v.1.15,2013-07-19 20:38:00,
2013-07-19 15:43:00,85.3,69.8,29.58,South,181,4.0,4.0,60,0.00,,,0.00,Wunderground v.1.15,2013-07-19 20:43:00,
2013-07-19 15:48:00,85.3,68.8,29.58,South,169,2.0,9.0,58,0.00,,,0.00,Wunderground v.1.15,2013-07-19 20:48:00,
2013-07-19 15:53:00,85.9,69.4,29.58,SSW,195,3.0,7.0,58,0.00,,,0.00,Wunderground v.1.15,2013-07-19 20:53:00,
2013-07-19 15:58:00,86.0,69.5,29.58,SSW,208,3.0,7.0,58,0.00,,,0.00,Wunderground v.1.15,2013-07-19 20:58:00,
2013-07-19 16:03:00,85.5,69.5,29.58,SE,139,1.0,7.0,59,0.00,,,0.00,Wunderground v.1.15,2013-07-19 21:03:00,
2013-07-19 16:08:00,85.6,70.1,29.57,SW,222,2.0,7.0,60,0.00,,,0.00,Wunderground v.1.15,2013-07-19 21:08:00,
2013-07-19 16:13:00,86.2,70.2,29.57,WNW,303,1.0,5.0,59,0.00,,,0.00,Wunderground v.1.15,2013-07-19 21:13:00,
2013-07-19 16:18:00,86.5,70.5,29.57,WSW,252,4.0,7.0,59,0.00,,,0.00,Wunderground v.1.15,2013-07-19 21:18:00,
2013-07-19 16:23:00,86.1,70.6,29.57,SW,217,3.0,5.0,60,0.00,,,0.00,Wunderground v.1.15,2013-07-19 21:23:00,
2013-07-19 16:28:00,86.1,70.1,29.57,SE,138,7.0,7.0,59,0.00,,,0.00,Wunderground v.1.15,2013-07-19 21:28:00,
2013-07-19 16:33:00,86.2,70.2,29.57,West,276,4.0,8.0,59,0.00,,,0.00,Wunderground v.1.15,2013-07-19 21:33:00,
2013-07-19 16:38:00,86.1,69.6,29.57,SW,226,5.0,9.0,58,0.00,,,0.00,Wunderground v.1.15,2013-07-19 21:38:00,
2013-07-19 16:43:00,86.4,69.9,29.57,WSW,248,4.0,7.0,58,0.00,,,0.00,Wunderground v.1.15,2013-07-19 21:43:00,
2013-07-19 16:48:00,86.4,69.9,29.57,SW,226,2.0,7.0,58,0.00,,,0.00,Wunderground v.1.15,2013-07-19 21:48:00,
2013-07-19 16:53:00,86.5,68.9,29.56,SW,217,4.0,8.0,56,0.00,,,0.00,Wunderground v.1.15,2013-07-19 21:53:00,
2013-07-19 16:58:00,86.4,69.9,29.56,SW,221,3.0,8.0,58,0.00,,,0.00,Wunderground v.1.15,2013-07-19 21:58:00,
2013-07-19 17:03:00,86.3,69.8,29.56,SSE,165,2.0,8.0,58,0.00,,,0.00,Wunderground v.1.15,2013-07-19 22:03:00,
2013-07-19 17:08:00,86.3,69.8,29.56,South,180,2.0,8.0,58,0.00,,,0.00,Wunderground v.1.15,2013-07-19 22:08:00,
2013-07-19 17:13:00,86.6,69.6,29.56,SSW,195,6.0,6.0,57,0.00,,,0.00,Wunderground v.1.15,2013-07-19 22:13:00,
2013-07-19 17:18:00,86.6,69.0,29.56,South,170,3.0,7.0,56,0.00,,,0.00,Wunderground v.1.15,2013-07-19 22:18:00,
2013-07-19 17:23:00,86.5,68.9,29.56,SSW,201,4.0,5.0,56,0.00,,,0.00,Wunderground v.1.15,2013-07-19 22:23:00,
2013-07-19 17:28:00,86.5,69.5,29.56,SW,219,4.0,8.0,57,0.00,,,0.00,Wunderground v.1.15,2013-07-19 22:28:00,
2013-07-19 17:33:00,86.0,69.0,29.55,SW,217,6.0,7.0,57,0.00,,,0.00,Wunderground v.1.15,2013-07-19 22:33:00,
2013-07-19 17:38:00,85.6,69.1,29.55,WSW,249,2.0,8.0,58,0.00,,,0.00,Wunderground v.1.15,2013-07-19 22:38:00,
2013-07-19 17:43:00,85.7,69.2,29.55,SSW,210,5.0,8.0,58,0.00,,,0.00,Wunderground v.1.15,2013-07-19 22:43:00,
2013-07-19 17:48:00,85.8,69.3,29.56,SSW,211,2.0,9.0,58,0.00,,,0.00,Wunderground v.1.15,2013-07-19 22:48:00,
2013-07-19 17:53:00,85.7,69.2,29.55,SW,236,3.0,10.0,58,0.00,,,0.00,Wunderground v.1.15,2013-07-19 22:53:00,
2013-07-19 17:58:00,85.9,68.9,29.56,South,191,5.0,10.0,57,0.00,,,0.00,Wunderground v.1.15,2013-07-19 22:58:00,
2013-07-19 18:03:00,85.9,69.4,29.55,SSW,206,2.0,6.0,58,0.00,,,0.00,Wunderground v.1.15,2013-07-19 23:03:00,
2013-07-19 18:08:00,86.1,69.6,29.56,SSW,212,3.0,6.0,58,0.00,,,0.00,Wunderground v.1.15,2013-07-19 23:08:00,
2013-07-19 18:14:00,86.1,69.6,29.55,SW,231,3.0,5.0,58,0.00,,,0.00,Wunderground v.1.15,2013-07-19 23:14:00,
2013-07-19 18:19:00,86.0,69.0,29.55,WSW,243,2.0,9.0,57,0.00,,,0.00,Wunderground v.1.15,2013-07-19 23:19:00,
2013-07-19 18:23:00,85.7,69.2,29.55,SSE,151,2.0,8.0,58,0.00,,,0.00,Wunderground v.1.15,2013-07-19 23:23:00,
2013-07-19 18:29:00,85.6,69.6,29.55,SSE,167,2.0,8.0,59,0.00,,,0.00,Wunderground v.1.15,2013-07-19 23:29:00,
2013-07-19 18:34:00,85.7,69.7,29.55,SSW,208,4.0,5.0,59,0.00,,,0.00,Wunderground v.1.15,2013-07-19 23:34:00,
2013-07-19 18:38:00,85.7,70.2,29.55,WSW,241,2.0,5.0,60,0.00,,,0.00,Wunderground v.1.15,2013-07-19 23:38:00,
2013-07-19 18:43:00,85.5,70.0,29.55,SSW,208,7.0,7.0,60,0.00,,,0.00,Wunderground v.1.15,2013-07-19 23:43:00,
2013-07-19 18:48:00,85.3,69.8,29.55,SSW,198,5.0,7.0,60,0.00,,,0.00,Wunderground v.1.15,2013-07-19 23:48:00,
2013-07-19 18:53:00,85.2,70.2,29.55,SW,226,3.0,7.0,61,0.00,,,0.00,Wunderground v.1.15,2013-07-19 23:53:00,
2013-07-19 18:58:00,85.0,70.0,29.55,South,187,4.0,7.0,61,0.00,,,0.00,Wunderground v.1.15,2013-07-19 23:58:00,
2013-07-19 19:04:00,85.0,70.5,29.55,SSW,208,4.0,5.0,62,0.00,,,0.00,Wunderground v.1.15,2013-07-20 00:04:00,
2013-07-19 19:09:00,85.0,70.0,29.55,SE,142,3.0,5.0,61,0.00,,,0.00,Wunderground v.1.15,2013-07-20 00:09:00,
2013-07-19 19:14:00,84.8,70.3,29.55,SSW,211,3.0,6.0,62,0.00,,,0.00,Wunderground v.1.15,2013-07-20 00:14:00,
2013-07-19 19:19:00,84.6,70.6,29.55,SW,219,1.0,6.0,63,0.00,,,0.00,Wunderground v.1.15,2013-07-20 00:19:00,
2013-07-19 19:24:00,84.6,70.6,29.55,SW,223,4.0,4.0,63,0.00,,,0.00,Wunderground v.1.15,2013-07-20 00:24:00,
2013-07-19 19:29:00,84.5,70.5,29.55,SSW,197,2.0,4.0,63,0.00,,,0.00,Wunderground v.1.15,2013-07-20 00:29:00,
2013-07-19 19:34:00,84.4,70.4,29.55,South,172,1.0,3.0,63,0.00,,,0.00,Wunderground v.1.15,2013-07-20 00:34:00,
2013-07-19 19:39:00,84.3,70.3,29.55,SW,224,2.0,3.0,63,0.00,,,0.00,Wunderground v.1.15,2013-07-20 00:39:00,
2013-07-19 19:44:00,84.0,70.5,29.56,SSW,205,2.0,4.0,64,0.00,,,0.00,Wunderground v.1.15,2013-07-20 00:44:00,
2013-07-19 19:49:00,83.6,70.1,29.56,SSE,166,1.0,4.0,64,0.00,,,0.00,Wunderground v.1.15,2013-07-20 00:49:00,
2013-07-19 19:54:00,83.3,70.3,29.56,South,178,2.0,3.0,65,0.00,,,0.00,Wunderground v.1.15,2013-07-20 00:54:00,
2013-07-19 19:59:00,82.9,70.4,29.56,SW,236,2.0,3.0,66,0.00,,,0.00,Wunderground v.1.15,2013-07-20 00:59:00,
2013-07-19 20:04:00,82.2,70.1,29.56,SSW,212,1.0,4.0,67,0.00,,,0.00,Wunderground v.1.15,2013-07-20 01:04:00,
2013-07-19 20:09:00,81.9,69.9,29.56,SSW,210,2.0,4.0,67,0.00,,,0.00,Wunderground v.1.15,2013-07-20 01:09:00,
2013-07-19 20:14:00,81.5,69.9,29.56,SSW,211,1.0,2.0,68,0.00,,,0.00,Wunderground v.1.15,2013-07-20 01:14:00,
2013-07-19 20:19:00,81.3,70.2,29.56,SSW,212,0.0,2.0,69,0.00,,,0.00,Wunderground v.1.15,2013-07-20 01:19:00,
2013-07-19 20:24:00,81.0,69.9,29.56,SSW,209,0.0,1.0,69,0.00,,,0.00,Wunderground v.1.15,2013-07-20 01:24:00,
2013-07-19 20:29:00,80.8,70.1,29.56,SSW,208,0.0,1.0,70,0.00,,,0.00,Wunderground v.1.15,2013-07-20 01:29:00,
2013-07-19 20:34:00,80.5,69.8,29.56,SSW,200,0.0,0.0,70,0.00,,,0.00,Wunderground v.1.15,2013-07-20 01:34:00,
2013-07-19 20:39:00,80.3,70.0,29.56,SW,219,0.0,0.0,71,0.00,,,0.00,Wunderground v.1.15,2013-07-20 01:39:00,
2013-07-19 20:44:00,80.1,69.8,29.56,SW,219,0.0,0.0,71,0.00,,,0.00,Wunderground v.1.15,2013-07-20 01:44:00,
2013-07-19 20:49:00,79.9,70.1,29.56,SW,219,0.0,0.0,72,0.00,,,0.00,Wunderground v.1.15,2013-07-20 01:49:00,
2013-07-19 20:54:00,79.7,70.3,29.56,SSE,151,0.0,0.0,73,0.00,,,0.00,Wunderground v.1.15,2013-07-20 01:54:00,
2013-07-19 20:59:00,79.4,70.4,29.57,SSE,166,0.0,0.0,74,0.00,,,0.00,Wunderground v.1.15,2013-07-20 01:59:00,
2013-07-19 21:04:00,79.2,70.6,29.56,SSE,158,0.0,0.0,75,0.00,,,0.00,Wunderground v.1.15,2013-07-20 02:04:00,
2013-07-19 21:09:00,79.0,70.4,29.56,SE,136,0.0,0.0,75,0.00,,,0.00,Wunderground v.1.15,2013-07-20 02:09:00,
2013-07-19 21:14:00,78.7,70.5,29.57,SSE,149,0.0,0.0,76,0.00,,,0.00,Wunderground v.1.15,2013-07-20 02:14:00,
2013-07-19 21:19:00,78.5,70.7,29.57,South,176,0.0,0.0,77,0.00,,,0.00,Wunderground v.1.15,2013-07-20 02:19:00,
2013-07-19 21:24:00,78.3,70.5,29.57,SSE,160,0.0,0.0,77,0.00,,,0.00,Wunderground v.1.15,2013-07-20 02:24:00,
2013-07-19 21:29:00,78.1,70.3,29.57,SSE,167,0.0,0.0,77,0.00,,,0.00,Wunderground v.1.15,2013-07-20 02:29:00,
2013-07-19 21:34:00,78.0,70.2,29.57,SSE,167,0.0,0.0,77,0.00,,,0.00,Wunderground v.1.15,2013-07-20 02:34:00,
2013-07-19 21:39:00,77.9,70.1,29.57,SSW,203,0.0,0.0,77,0.00,,,0.00,Wunderground v.1.15,2013-07-20 02:39:00,
2013-07-19 21:44:00,77.8,70.0,29.57,SSW,198,0.0,0.0,77,0.00,,,0.00,Wunderground v.1.15,2013-07-20 02:44:00,
2013-07-19 21:49:00,77.7,70.3,29.57,South,187,0.0,0.0,78,0.00,,,0.00,Wunderground v.1.15,2013-07-20 02:49:00,
2013-07-19 21:54:00,77.6,70.2,29.58,SE,134,0.0,2.0,78,0.00,,,0.00,Wunderground v.1.15,2013-07-20 02:54:00,
2013-07-19 21:59:00,77.4,70.4,29.58,SE,129,0.0,2.0,79,0.00,,,0.00,Wunderground v.1.15,2013-07-20 02:59:00,
2013-07-19 22:04:00,77.2,70.2,29.58,South,181,1.0,2.0,79,0.00,,,0.00,Wunderground v.1.15,2013-07-20 03:04:00,
2013-07-19 22:09:00,77.1,70.1,29.58,South,175,0.0,3.0,79,0.00,,,0.00,Wunderground v.1.15,2013-07-20 03:09:00,
2013-07-19 22:14:00,77.0,70.0,29.58,SSW,200,2.0,2.0,79,0.00,,,0.00,Wunderground v.1.15,2013-07-20 03:14:00,
2013-07-19 22:19:00,76.9,69.9,29.58,SW,217,1.0,3.0,79,0.00,,,0.00,Wunderground v.1.15,2013-07-20 03:19:00,
2013-07-19 22:24:00,76.7,70.1,29.58,SW,217,0.0,4.0,80,0.00,,,0.00,Wunderground v.1.15,2013-07-20 03:24:00,
2013-07-19 22:29:00,76.6,70.3,29.58,SW,215,0.0,1.0,81,0.00,,,0.00,Wunderground v.1.15,2013-07-20 03:29:00,
2013-07-19 22:35:00,76.4,70.1,29.57,SSE,167,0.0,2.0,81,0.00,,,0.00,Wunderground v.1.15,2013-07-20 03:35:00,
2013-07-19 22:40:00,76.2,70.3,29.58,SSE,163,1.0,2.0,82,0.00,,,0.00,Wunderground v.1.15,2013-07-20 03:40:00,
2013-07-19 22:45:00,76.0,70.1,29.58,SSW,205,1.0,3.0,82,0.00,,,0.00,Wunderground v.1.15,2013-07-20 03:45:00,
2013-07-19 22:50:00,75.8,69.9,29.58,South,191,3.0,3.0,82,0.00,,,0.00,Wunderground v.1.15,2013-07-20 03:50:00,
2013-07-19 22:55:00,75.7,69.8,29.58,SSW,197,1.0,3.0,82,0.00,,,0.00,Wunderground v.1.15,2013-07-20 03:55:00,
2013-07-19 23:00:00,75.7,69.8,29.57,South,183,1.0,2.0,82,0.00,,,0.00,Wunderground v.1.15,2013-07-20 04:00:00,
2013-07-19 23:01:00,75.6,69.7,29.57,SE,142,2.0,2.0,82,0.00,,,0.00,Wunderground v.1.15,2013-07-20 04:01:00,
2013-07-19 23:06:00,75.5,69.6,29.57,SE,136,2.0,4.0,82,0.00,,,0.00,Wunderground v.1.15,2013-07-20 04:06:00,
2013-07-19 23:11:00,75.5,69.6,29.57,SW,226,1.0,4.0,82,0.00,,,0.00,Wunderground v.1.15,2013-07-20 04:11:00,
2013-07-19 23:16:00,75.4,69.5,29.58,South,176,1.0,4.0,82,0.00,,,0.00,Wunderground v.1.15,2013-07-20 04:16:00,
2013-07-19 23:21:00,75.2,69.3,29.58,SW,226,0.0,1.0,82,0.00,,,0.00,Wunderground v.1.15,2013-07-20 04:21:00,
2013-07-19 23:26:00,75.1,69.6,29.58,SW,226,0.0,3.0,83,0.00,,,0.00,Wunderground v.1.15,2013-07-20 04:26:00,
2013-07-19 23:31:00,75.0,69.5,29.58,SSW,211,0.0,1.0,83,0.00,,,0.00,Wunderground v.1.15,2013-07-20 04:31:00,
2013-07-19 23:36:00,74.8,69.3,29.58,SSE,162,0.0,1.0,83,0.00,,,0.00,Wunderground v.1.15,2013-07-20 04:36:00,
2013-07-19 23:41:00,74.7,69.5,29.58,SSE,160,0.0,2.0,84,0.00,,,0.00,Wunderground v.1.15,2013-07-20 04:41:00,
2013-07-19 23:46:00,74.6,69.4,29.57,SSW,208,0.0,2.0,84,0.00,,,0.00,Wunderground v.1.15,2013-07-20 04:46:00,
2013-07-19 23:51:00,74.5,69.3,29.57,SSE,156,1.0,5.0,84,0.00,,,0.00,Wunderground v.1.15,2013-07-20 04:51:00,
2013-07-19 23:57:00,74.5,69.3,29.58,SE,146,0.0,5.0,84,0.00,,,0.00,Wunderground v.1.15,2013-07-20 04:57:00,